Location: Croissy-Beaubourg
(48.8283°N, 2.6696°E)
Time: 01:45:30
(UTC+00:00)

USA 215 - Pass Details

Date: 31 May 2022
Orbit: 1099 x 1108 km, 123.0° (Epoch: 10 June)

Event Time Altitude Azimuth Distance (km) Brightness Sun altitude
Rises 00:10:23 0° 55° (NE) 3,926 6.8 -19.1°
Reaches altitude 10° 00:12:52 10° 56° (NE) 2,967 6.1 -19.1°
Maximum altitude 00:19:27 89° 143° (SE) 1,110 3.2 -18.9°
Enters shadow 00:25:12 14° 237° (WSW) 2,651 4.9 -18.8°
